This is the latest recevied weather packets stored in our database for station/object KF6RAL-6. If no packets are shown the sender has not sent any weather packets the latest 10 day(s).
| Time | Temp. | Humidity | Pressure | Rain* | Wind** | Luminosity | Snow |
|---|---|---|---|---|---|---|---|
| 1777209853 | 8.33° C | 82% | 999.8 hPa | 2.54 mm | - | - | - |
| 1777209010 | 8.33° C | 81% | 999.9 hPa | 2.03 mm | - | - | - |
| 1777208589 | 8.33° C | 79% | 999.7 hPa | 2.03 mm | - | - | - |
| 1777208168 | 8.89° C | 78% | 999.6 hPa | 1.52 mm | - | - | - |
| 1777207747 | 8.89° C | 77% | 999.5 hPa | 1.27 mm | - | - | - |
| 1777207327 | 8.89° C | 76% | 999.5 hPa | 1.02 mm | - | - | - |
| 1777206905 | 9.44° C | 75% | 999.5 hPa | 0.51 mm | - | - | - |
| 1777206063 | 10° C | 74% | 999.9 hPa | 0 mm | - | - | - |
| 1777205642 | 10° C | 74% | 1000 hPa | 0 mm | - | - | - |
| 1777205221 | 10° C | 74% | 999.9 hPa | 0 mm | - | - | - |
| 1777204800 | 10° C | 74% | 1000.1 hPa | 0 mm | - | - | - |
| 1777204379 | 10° C | 74% | 1000 hPa | 0 mm | - | - | - |
| 1777203958 | 10° C | 74% | 999.4 hPa | 0 mm | - | - | - |
| 1777203537 | 10° C | 75% | 999.5 hPa | 0 mm | - | - | - |
| 1777203116 | 10° C | 75% | 999.6 hPa | 0.25 mm | - | - | - |
| 1777202695 | 10° C | 75% | 999.8 hPa | 0.25 mm | - | - | - |
| 1777202274 | 10° C | 75% | 999.8 hPa | 0.25 mm | - | - | - |
| 1777201853 | 10° C | 75% | 999.9 hPa | 0.25 mm | - | - | - |
| 1777201432 | 10° C | 76% | 1000 hPa | 0.25 mm | - | - | - |
| 1777201011 | 10° C | 76% | 1000 hPa | 0.25 mm | - | - | - |
| 1777200590 | 10° C | 76% | 1000 hPa | 0.25 mm | - | - | - |
| 1777200169 | 10° C | 75% | 1000.1 hPa | 0.51 mm | - | - | - |
| 1777199748 | 10° C | 75% | 1000.1 hPa | 0.25 mm | - | - | - |
| 1777199327 | 10° C | 74% | 1000.2 hPa | 0.25 mm | - | - | - |
| 1777198906 | 10° C | 74% | 1000.3 hPa | 0.25 mm | - | - | - |
* Rain latest hour (hover to see other rain measurements)
** Current wind speed in m/s (hover to see current wind gust speed)